カタログに戻る

STARLINK-38068

運用中通信SSO
NORAD 69984·PAYLOAD·🇺🇸 United States

打ち上げ Jul 11, 2026 から Vandenberg Space Force Base

Loading…

次のパス (今後24時間)

TLE

最新Source: CelesTrak SupGP

元期: Sep 15, 2026, 04:29 UTC

1 69984C 26159K   26258.18729167 -.00116030  00000+0 -21455-2 0  2582
2 69984  97.2847  99.8948 0001914  84.0994 171.4660 15.49143111    17

AllMySatでSTARLINK-38068をリアルタイム追跡

Download on the App Store